Regional Weather Roundup
Issued by NWS Boston, MA

Current Version | Previous Version | Text Only | Print | Product List | Glossary Off
Versions: 1 2 3 4 5 6 7 8 9 10 11 12 13 14 15 16 17 18 19 20 21 22 23 24 25 26 27 28 29 30 31 32 33 34 35 36 37 38 39 40 41 42 43 44 45 46 47 48 49 50
000 ASUS41 KBOX 191110 RWRBOX REGIONAL WEATHER ROUNDUP NATIONAL WEATHER SERVICE BOSTON/NORTON MA 700 AM EDT FRI OCT 19 2018 NOTE: "FAIR" INDICATES FEW OR NO CLOUDS BELOW 12,000 FEET WITH NO SIGNIFICANT WEATHER AND/OR OBSTRUCTIONS TO VISIBILITY. MAZALL-191200- EASTERN MASSACHUSETTS CITY SKY/WX TMP DP RH WIND PRES REMARKS BOSTON FAIR 38 27 64 SW13 30.24S WCI 30 BEVERLY FAIR 34 25 69 SW3 30.21F LAWRENCE FAIR 35 26 69 S7 30.23F WCI 29 BEDFORD FAIR 32 26 78 SW6 30.22F WCI 26 BLUE HILL N/A 32 25 75 SW13 30.21F WCI 22 NORWOOD FAIR 30 26 85 CALM 30.25S MARSHFIELD FAIR 32 28 86 SW3 30.25S PLYMOUTH FAIR 35 27 72 SW5 30.26S WCI 31 TAUNTON FAIR 29 26 89 CALM 30.26F NEW BEDFORD FAIR 31 30 96 SW5 30.27S WCI 26 $$ MAZALL-191200- CAPE COD AND THE ISLANDS CITY SKY/WX TMP DP RH WIND PRES REMARKS FALMOUTH FAIR 32 27 80 SW5 30.28S WCI 27 HYANNIS FAIR 38 29 70 W6 30.25S CHATHAM FAIR 33 28 81 W3 30.27R PROVINCETOWN FAIR 41 32 70 W8 30.25S NANTUCKET FAIR 40 31 70 W8 30.27F MARTHAS VNYRD FAIR 36 32 85 W6 30.28S WCI 31 $$ MAZALL-191200- CENTRAL AND WESTERN MASSACHUSETTS CITY SKY/WX TMP DP RH WIND PRES REMARKS WORCESTER FAIR 33 26 75 W8 30.19F WCI 26 FITCHBURG FAIR 28 26 92 CALM 30.22S ORANGE FAIR 27 23 85 CALM 30.22F SPRINGFIELD PTCLDY 29 25 86 S3 30.23F WESTFIELD FAIR 30 27 88 S3 30.24F NORTH ADAMS FAIR 38 32 79 NW7 30.20F PITTSFIELD FAIR 29 24 82 CALM 30.19F $$ RIZALL-191200- RHODE ISLAND CITY SKY/WX TMP DP RH WIND PRES REMARKS PROVIDENCE FAIR 32 26 78 SW6 30.28F WCI 26 NEWPORT FAIR 40 28 62 VRB3 30.28S SMITHFIELD FAIR 29 26 89 SW3 30.25F WESTERLY FAIR 35 28 75 CALM 30.29S $$ CTZALL-191200- CONNECTICUT CITY SKY/WX TMP DP RH WIND PRES REMARKS BRADLEY INTL FAIR 31 27 85 S6 30.26F WCI 25 HARTFORD FAIR 32 29 88 SE5 30.28F WCI 27 BRIDGEPORT FAIR 37 29 72 CALM 30.29F DANBURY FAIR 31 29 92 SW7 30.28F WCI 24 GROTON FAIR 38 29 70 W8 30.29S NEW HAVEN FAIR 33 30 88 CALM 30.29F CHESTER FAIR 36 28 75 VRB5 30.27F WCI 32 MERIDEN FAIR 27 26 96 CALM 30.29F WILLIMANTIC FAIR 30 29 96 CALM 30.28F OXFORD FAIR 28 26 92 CALM 30.26F $$ MEZ002-015-021-024-NHZ003-005-008-011-012-014-VTZ005-008-191200- NORTHERN NEW ENGLAND CITY SKY/WX TMP DP RH WIND PRES REMARKS PORTLAND ME MOCLDY 35 24 64 CALM 30.18S BANGOR ME CLOUDY 35 22 58 S3 30.14S CONCORD NH FAIR 24 22 91 NE3 30.19S MANCHESTER NH FAIR 32 26 78 S5 30.19F WCI 27 NASHUA NH FAIR 29 27 92 E5 30.22S WCI 24 PORTSMOUTH NH PTCLDY 30 24 79 CALM 30.18F JAFFREY NH FAIR 33 28 81 SW8 30.18F WCI 26 KEENE NH FAIR 24 23 96 CALM 30.21F BURLINGTON VT FAIR 38 29 70 S14 30.10F WCI 30 MT. WASHINGTON BLWGSNOW 18 18 100 W59 N/A VSB 0 WCI -7 $$ NYZ052-076-191200- EASTERN NEW YORK CITY SKY/WX TMP DP RH WIND PRES REMARKS ALBANY FAIR 34 26 72 S8 30.23F WCI 27 NEW YORK CITY FAIR 47 31 53 SW8 30.30S $$ ANZALL-191200- MARINE OBSERVATIONS STATION/POSITION TIME TEMP WIND PRES VSBY WAVE AIR SEA DIR/SP/G HT/PER (UTC) (F) (DEG/KT/KT) (MB) (MI) (FT/S) BOSTON BUOY 1050 43 57 240/ 16/ 17 1023.1F 1/ 3 BUZZARDS BAY 1000 45 270/ 16/ 18 1025.8F NANTUCKET SOUND 1050 45 60 290/ 14/ 19 1024.9F 1/ 3 MASS BAY-STELLWA 1004 43 55 270/ 14/ 17 1022.7F 1 7/8 1/ 3 ISLE OF SHOALS 1000 40 240/ 17/ 18 1022.2F S OF BLOCK IS 1043 63 N/A 3/ 6 $$ ......................KEY......................... SKY/WX - SKY CONDITION/PRESENT WEATHER TMP - TEMPERATURE IN FAHRENHEIT DWPT - DEWPOINT IN FAHRENHEIT RH - RELATIVE HUMIDITY IN PERCENT WIND - DIRECTION AND SPEED IN MPH PRES - MEAN SEA LEVEL PRESSURE IN INCHES OF HG WCI - WIND CHILL INDEX VSB - VISIBILITY IN MILES HX - HEAT INDEX TC - TEMPERATURE IN CELSIUS VRB - VARIABLE WIND DIRECTION N/A - NOT AVAILABLE

USA.gov is the U.S. government's official web portal to all federal, state and local government web resources and services.